Weather History for Hilton Head Island, SC

Change the Weather History Date:

Thursday, January 3, 2013

  Actual Average Record
Temperature  
Mean Temperature 50 °F -  
Max Temperature 53 °F 59 °F 69 °F (2015)
Min Temperature 48 °F 41 °F 55 °F (2015)
Degree Days  
Heating Degree Days 14    
Moisture  
Dew Point 51 °F    
Average Humidity 98    
Maximum Humidity 100    
Minimum Humidity 82    
Precipitation  
Precipitation 0.00 in - - ()
Sea Level Pressure  
Sea Level Pressure 30.18 in    
Wind  
Wind Speed 5 mph (North)    
Max Wind Speed 9 mph    
Max Gust Speed -    
Visibility 10 miles    
Events Rain    
Averages and records for this station are not official NWS values.
T = Trace of Precipitation, MM = Missing Value Source: NWS Daily Summary

Daily Weather History Graph

Daily Weather History Graph

Search for Another Location

Airport:

Trip Planner

Search our weather history database for the weather conditions in past years. The results will help you decide how hot, cold, wet, or windy it might be!

Date:

Astronomy

Jan. 03, 2013 Rise Set
Actual Time 7:24 AM EST 5:30 PM EST
Civil Twilight 6:57 AM EST 5:57 PM EST
Nautical Twilight 6:26 AM EST 6:28 PM EST
Astronomical Twilight 5:57 AM EST 6:57 PM EST
Moon 11:39 PM EST (1/3) 10:57 AM EST (1/3)
Length of Visible Light 11h 00m
Length of Day
10h 06m
Waning Gibbous, 65% of the Moon is Illuminated
Jan 3
Waning Gibbous
Jan 4
Last Quarter
Jan 11
New
Jan 18
First Quarter
Jan 26
Full

Hourly Weather History & Observations

Time (EST) Temp. Dew Point Humidity Pressure Visibility Wind Dir Wind Speed Gust Speed Precip Events Conditions
12:15 AM 53.6 °F 53.6 °F 100% 30.13 in 10.0 mi NNE 5.8 mph - 0.00 in   Mostly Cloudy
12:35 AM 53.6 °F 53.6 °F 100% 30.12 in 10.0 mi NNE 3.5 mph - 0.00 in   Mostly Cloudy
12:55 AM 53.6 °F 53.6 °F 100% 30.11 in 10.0 mi Calm Calm - 0.00 in   Overcast
1:15 AM 53.6 °F 53.6 °F 100% 30.11 in 10.0 mi NE 3.5 mph - 0.00 in   Overcast
1:35 AM 53.6 °F 53.6 °F 100% 30.09 in 10.0 mi NNE 4.6 mph - 0.00 in   Scattered Clouds
1:55 AM 53.6 °F 53.6 °F 100% 30.11 in 10.0 mi NNE 5.8 mph - 0.00 in   Mostly Cloudy
2:15 AM 53.6 °F 53.6 °F 100% 30.11 in 10.0 mi NE 5.8 mph - 0.00 in   Overcast
2:35 AM 53.6 °F 53.6 °F 100% 30.11 in 10.0 mi NNE 5.8 mph - 0.00 in   Overcast
2:55 AM 53.6 °F 53.6 °F 100% 30.11 in 10.0 mi NNE 4.6 mph - 0.00 in   Overcast
3:15 AM 53.6 °F 53.6 °F 100% 30.12 in 10.0 mi North 3.5 mph - 0.00 in   Overcast
3:35 AM 53.6 °F 53.6 °F 100% 30.11 in 10.0 mi NNE 5.8 mph - 0.00 in   Mostly Cloudy
3:55 AM 53.6 °F 53.6 °F 100% 30.12 in 10.0 mi North 4.6 mph - 0.00 in   Mostly Cloudy
4:15 AM 53.6 °F 53.6 °F 100% 30.12 in 10.0 mi NNE 5.8 mph - 0.00 in   Overcast
4:35 AM 53.6 °F 53.6 °F 100% 30.11 in 10.0 mi NE 5.8 mph - 0.00 in   Overcast
4:55 AM 53.6 °F 53.6 °F 100% 30.12 in 10.0 mi NNE 5.8 mph - 0.00 in   Overcast
5:15 AM 53.6 °F 53.6 °F 100% 30.12 in 10.0 mi NE 5.8 mph - 0.00 in   Overcast
5:35 AM 53.6 °F 53.6 °F 100% 30.12 in 10.0 mi NNE 5.8 mph - 0.00 in   Overcast
6:50 AM 51.8 °F 50.0 °F 94% 30.16 in 7.0 mi North 6.9 mph - N/A   Mostly Cloudy
8:50 AM 51.8 °F 50.0 °F 94% 30.16 in 10.0 mi North 6.9 mph - N/A   Overcast
9:50 AM 51.8 °F 50.0 °F 94% 30.17 in 10.0 mi NE 3.5 mph - N/A   Overcast
10:50 AM 53.6 °F 50.0 °F 88% 30.21 in 9.0 mi NE 3.5 mph - N/A Rain Light Rain
11:50 AM 53.6 °F 51.8 °F 94% 30.20 in 6.0 mi NE 5.8 mph - N/A   Drizzle
12:25 PM 53.6 °F 50.0 °F 88% 30.18 in 10.0 mi Calm Calm - N/A   Partly Cloudy
12:50 PM 53.6 °F 50.0 °F 88% 30.16 in 10.0 mi Calm Calm - N/A   Partly Cloudy
1:50 PM 53.6 °F 50.0 °F 88% 30.16 in 10.0 mi NNW 4.6 mph - N/A   Scattered Clouds
2:50 PM 53.6 °F 48.2 °F 82% 30.15 in 10.0 mi NNW 5.8 mph - N/A   Overcast
3:50 PM 51.8 °F 50.0 °F 94% 30.17 in 6.0 mi NNW 5.8 mph - N/A Rain Light Rain
4:50 PM 50.0 °F 48.2 °F 94% 30.17 in 4.0 mi Calm Calm - N/A Rain Light Rain
5:50 PM 48.2 °F 48.2 °F 100% 30.21 in 5.0 mi West 3.5 mph - N/A Rain Light Rain
6:50 PM 48.2 °F 48.2 °F 100% 30.22 in 10.0 mi WNW 4.6 mph - N/A   Mostly Cloudy
7:50 PM 48.2 °F 48.2 °F 100% 30.24 in 10.0 mi West 3.5 mph - N/A   Overcast
8:15 PM 48.2 °F 48.2 °F 100% 30.25 in 10.0 mi WNW 3.5 mph - 0.00 in   Mostly Cloudy
8:35 PM 48.2 °F 48.2 °F 100% 30.25 in 10.0 mi Calm Calm - 0.00 in   Mostly Cloudy
8:55 PM 48.2 °F 48.2 °F 100% 30.25 in 10.0 mi NW 4.6 mph - 0.00 in   Overcast
9:15 PM 48.2 °F 48.2 °F 100% 30.26 in 10.0 mi NW 5.8 mph - 0.00 in   Overcast
9:35 PM 48.2 °F 48.2 °F 100% 30.25 in 10.0 mi NNW 5.8 mph - 0.00 in   Overcast
9:55 PM 48.2 °F 48.2 °F 100% 30.26 in 10.0 mi NNW 9.2 mph - 0.00 in   Overcast
10:15 PM 48.2 °F 48.2 °F 100% 30.26 in 10.0 mi NNW 8.1 mph - 0.00 in   Overcast
10:35 PM 48.2 °F 48.2 °F 100% 30.26 in 10.0 mi NNW 6.9 mph - 0.00 in   Overcast
10:55 PM 48.2 °F 48.2 °F 100% 30.26 in 10.0 mi NNW 3.5 mph - 0.00 in   Mostly Cloudy
11:15 PM 48.2 °F 48.2 °F 100% 30.27 in 10.0 mi NNW 5.8 mph - 0.00 in   Scattered Clouds
11:35 PM 48.2 °F 48.2 °F 100% 30.27 in 10.0 mi North 4.6 mph - 0.00 in   Clear
11:55 PM 48.2 °F 48.2 °F 100% 30.27 in 10.0 mi North 6.9 mph - 0.00 in   Mostly Cloudy